LSGGLFLC

Guest
Details From LSGG - Geneva
To LFLC - Clermont-Ferrand_Auvergne
Flight Number -
Tags generated
Created
Modified
Stats Distance 125 nm / 232 km
Max Altitude 8,400 ft / 2,560 m
Waypoints 3
Social Downloads 15
Likes 0
Share

Download

Looking for another format? Having issues loading an existing format? Contact us
Advertisement - Login to hide

Notes

Basic altitude profile: - Ascent Rate: 2500ft/min - Ascent Speed: 250kts - Cruise Altitude: 35000ft - Cruise Speed: 420kts - Descent Rate: 1500ft/min - Descent Speed: 250kts Options: - Use NATs: no - Use PACOTS: yes - Use low airways: no - Use high airways: yes

Route

LSGG NINTU LFLC

ID Type Via Altitude (ft/m) Position (lat/lon) Dist (leg/tot) Name
O LSGG APT - 0 / 0 46.23775 / 6.10617 - / 0 nm Geneva
NINTU FIX - 8,400 / 2,560 46.14722 / 5.55306 23 / 23 nm
O LFLC APT - 0 / 0 45.78671 / 3.16997 101 / 125 nm Clermont-Ferrand_Auvergne

Altitude Profile

Advertisement - Login to hide

LSGG

Details ICAO LSGG (GVA)
Name Geneva
Region Switzerland
Timezone Europe/Zurich (UTC+2.0)
Stats Elevation 1,411 ft / 430 m (AMSL)
Location 46.238100° 6.109010°
Runways 1
Magnetic Variation 2.318° E

METAR

LSGG 030520Z VRB02KT 9999 MIFG FEW050 10/09 Q1024 NOSIG

Decode

TAF

TAF TAF LSGG 030225Z 0303/0409 VRB02KT 9999 FEW040 TX19/0314Z TN11/0306Z TN11/0402Z PROB30 TEMPO 0303/0308 3000 BCFG BECMG 0308/0311 04010KT BECMG 0318/0320 VRB02KT BECMG 0323/0402 BKN014

Decode

Departure Runways

ID Width Length Bearing (true/mag) Surface Threshold Overrun Markings Lighting
04 164 ft / 50 m 12,806 ft / 3,903 m 45.42° / 43.10° CONCRETE 1,076 ft / 328 m 0 ft / 0 m PREC-APP CENTERLINE EDGE THRESHOLD CALVERT TDZ REIL-OMNI
22 164 ft / 50 m 12,806 ft / 3,903 m 225.45° / 223.13° CONCRETE 0 ft / 0 m 0 ft / 0 m PREC-APP CENTERLINE EDGE THRESHOLD CALVERT-ILS TDZ REIL-OMNI

LFLC

Details ICAO LFLC (CFE)
Name Clermont-Ferrand Auvergne
Region France
Timezone Europe/Paris (UTC+2.0)
Stats Elevation 1,091 ft / 333 m (AMSL)
Location 45.786700° 3.169980°
Runways 1
Magnetic Variation 1.570° E

METAR

LFLC 030530Z AUTO 08002KT 9999 2200 BKN018 OVC024 13/12 Q1025 TEMPO BKN014

Decode

TAF

TAF LFLC 022300Z 0300/0324 VRB03KT 9999 BKN050 TEMPO 0300/0308 BKN020 TEMPO 0310/0320 02010KT

Decode

Destination Runways

ID Width Length Bearing (true/mag) Surface Threshold Overrun Markings Lighting
08 148 ft / 45 m 9,869 ft / 3,008 m 81.95° / 80.38° ASPHALT 0 ft / 0 m 0 ft / 0 m APP CENTERLINE EDGE THRESHOLD
26 148 ft / 45 m 9,869 ft / 3,008 m 261.98° / 260.41° ASPHALT 469 ft / 143 m 0 ft / 0 m PREC-APP CENTERLINE EDGE THRESHOLD ALSF-II TDZ

Approach Navaids

Runway Type Ident Frequency Range Bearing (true/mag) Slope Elevation
26 DME CF 111.10 MHz 27 nm / 50 km - - 1,089 ft / 332 m (AMSL)
26 LOC-ILS CF 111.10 MHz 18 nm / 33 km 261.96° / 260.39 ° - 1,091 ft / 333 m (AMSL)
26 GS CF 111.10 MHz 10 nm / 19 km 261.96° / 260.39 ° 3.00° 1,091 ft / 333 m (AMSL)

Popular Alternatives